TimePDT,TemperatureF,Dew PointF,Humidity,Sea Level PressureIn,VisibilityMPH,Wind Direction,Wind SpeedMPH,Gust SpeedMPH,PrecipitationIn,Events,Conditions,WindDirDegrees,DateUTC
12:53 AM,66.0,44.1,45,29.85,10.0,NNW,18.4,-,N/A,,Clear,330,2013-07-05 07:53:00
1:53 AM,64.9,44.1,47,29.86,10.0,NW,12.7,-,N/A,,Clear,320,2013-07-05 08:53:00
2:53 AM,64.0,44.1,48,29.85,10.0,WNW,5.8,-,N/A,,Clear,300,2013-07-05 09:53:00
3:53 AM,64.9,43.0,45,29.85,10.0,NW,9.2,16.1,N/A,,Clear,320,2013-07-05 10:53:00
4:53 AM,63.0,43.0,48,29.86,10.0,NW,4.6,-,N/A,,Clear,310,2013-07-05 11:53:00
5:53 AM,63.0,43.0,48,29.87,10.0,North,5.8,-,N/A,,Clear,350,2013-07-05 12:53:00
6:53 AM,66.0,43.0,43,29.88,10.0,NW,6.9,-,N/A,,Clear,310,2013-07-05 13:53:00
7:53 AM,70.0,42.1,36,29.88,10.0,NW,17.3,21.9,N/A,,Clear,310,2013-07-05 14:53:00
8:53 AM,72.0,43.0,35,29.88,10.0,NW,17.3,-,N/A,,Clear,310,2013-07-05 15:53:00
9:53 AM,75.0,43.0,32,29.87,10.0,NW,13.8,-,N/A,,Clear,310,2013-07-05 16:53:00
10:53 AM,78.1,42.1,28,29.86,10.0,NW,12.7,-,N/A,,Clear,310,2013-07-05 17:53:00
11:53 AM,81.0,44.1,27,29.85,10.0,WNW,10.4,-,N/A,,Clear,300,2013-07-05 18:53:00
12:53 PM,82.0,44.1,26,29.83,10.0,NW,4.6,-,N/A,,Clear,310,2013-07-05 19:53:00
1:53 PM,84.0,43.0,24,29.82,10.0,NNW,9.2,-,N/A,,Clear,330,2013-07-05 20:53:00
2:53 PM,86.0,39.0,19,29.80,10.0,NNW,15.0,23.0,N/A,,Clear,340,2013-07-05 21:53:00
3:53 PM,86.0,41.0,20,29.79,10.0,NNW,17.3,-,N/A,,Clear,330,2013-07-05 22:53:00
4:53 PM,84.9,43.0,23,29.78,10.0,NW,16.1,-,N/A,,Clear,320,2013-07-05 23:53:00
5:53 PM,82.9,45.0,26,29.78,10.0,NNW,18.4,24.2,N/A,,Clear,340,2013-07-06 00:53:00
6:53 PM,79.0,46.0,31,29.80,10.0,NNW,12.7,25.3,N/A,,Clear,340,2013-07-06 01:53:00
7:53 PM,75.0,46.0,36,29.82,10.0,Variable,5.8,19.6,N/A,,Clear,0,2013-07-06 02:53:00
8:53 PM,72.0,45.0,38,29.83,10.0,WNW,5.8,-,N/A,,Clear,300,2013-07-06 03:53:00
9:53 PM,69.1,45.0,42,29.86,10.0,NNW,5.8,-,N/A,,Clear,330,2013-07-06 04:53:00
10:53 PM,68.0,45.0,43,29.87,10.0,NNW,8.1,-,N/A,,Clear,330,2013-07-06 05:53:00
11:53 PM,66.0,45.0,47,29.86,10.0,NW,5.8,-,N/A,,Clear,310,2013-07-06 06:53:00